St. Petersburg, FL

8:04 AM EDT on September 25, 2017 (GMT -0400)
Whitted

Weather History for KSPG - December, 2012

Change the Weather History Date:

Saturday, December 8, 2012

  Actual Average Record
Temperature  
Mean Temperature 70 °F -  
Max Temperature 77 °F 73 °F 86 °F (1978)
Min Temperature 64 °F 58 °F 42 °F (1954)
Cooling Degree Days 6    
Growing Degree Days 20 (Base 50)    
Moisture  
Dew Point 66 °F    
Average Humidity 91    
Maximum Humidity 100    
Minimum Humidity 66    
Precipitation  
Precipitation 0.00 in - - ()
Sea Level Pressure  
Sea Level Pressure 30.00 in    
Wind  
Wind Speed 7 mph (East)    
Max Wind Speed 9 mph    
Max Gust Speed -    
Visibility 8 miles    
Events Fog    
Averages and records for this station are not official NWS values.
T = Trace of Precipitation, MM = Missing Value Source: NWS Daily Summary

Daily Weather History Graph

Daily Weather History Graph

Search for Another Location

Airport or City:

Trip Planner

Search our weather history database for the weather conditions in past years. The results will help you decide how hot, cold, wet, or windy it might be!

Date:

Astronomy

Dec. 08, 2012 Rise Set
Actual Time 7:09 AM EST 5:35 PM EST
Civil Twilight 6:43 AM EST 6:01 PM EST
Nautical Twilight 6:14 AM EST 6:30 PM EST
Astronomical Twilight 5:46 AM EST 6:59 PM EST
Moon 1:55 AM EST (12/8) 1:45 PM EST (12/8)
Length of Visible Light 11h 17m
Length of Day
10h 26m
Waning Crescent, 28% of the Moon is Illuminated
Dec 8
Waning Crescent
Dec 13
New
Dec 20
First Quarter
Dec 28
Full
Jan 4
Last Quarter

Hourly Weather History & Observations

Time (EST) Temp. Dew Point Humidity Pressure Visibility Wind Dir Wind Speed Gust Speed Precip Events Conditions
12:53 AM 68.0 °F 64.9 °F 90% 29.97 in 10.0 mi ESE 6.9 mph - N/A   Clear
1:53 AM 66.9 °F 66.0 °F 97% 29.96 in 10.0 mi East 8.1 mph - N/A   Clear
2:53 AM 66.9 °F 66.0 °F 97% 29.96 in 10.0 mi East 9.2 mph - N/A   Clear
3:01 AM 66.9 °F 66.0 °F 97% 29.96 in 9.0 mi East 9.2 mph - N/A   Scattered Clouds
3:22 AM 66.9 °F 66.9 °F 100% 29.96 in 8.0 mi East 6.9 mph - N/A   Mostly Cloudy
3:53 AM 66.0 °F 66.0 °F 100% 29.96 in 6.0 mi ESE 8.1 mph - N/A   Overcast
4:04 AM 66.0 °F 66.0 °F 100% 29.96 in 1.8 mi ESE 8.1 mph - N/A   Overcast
4:18 AM 64.9 °F 64.9 °F 100% 29.97 in 0.8 mi ESE 8.1 mph - N/A   Mist
4:53 AM 64.9 °F 64.9 °F 100% 29.97 in 0.5 mi ESE 9.2 mph - N/A Fog Fog
5:37 AM 64.9 °F 64.9 °F 100% 29.98 in 1.0 mi ESE 8.1 mph - N/A   Mist
6:04 AM 66.0 °F 66.0 °F 100% 29.98 in 1.0 mi ESE 8.1 mph - N/A   Mist
6:25 AM 66.0 °F 66.0 °F 100% 29.98 in 3.0 mi SE 6.9 mph - N/A   Overcast
6:53 AM 66.0 °F 66.0 °F 100% 30.00 in 9.0 mi SE 8.1 mph - N/A   Overcast
7:11 AM 66.0 °F 66.0 °F 100% 30.00 in 10.0 mi SE 8.1 mph - N/A   Overcast
7:53 AM 66.0 °F 66.0 °F 100% 30.01 in 10.0 mi SE 8.1 mph - N/A   Overcast
8:16 AM 66.9 °F 66.9 °F 100% 30.02 in 10.0 mi SE 9.2 mph - N/A   Overcast
8:53 AM 68.0 °F 66.9 °F 96% 30.03 in 10.0 mi North - - N/A   Overcast
9:53 AM 68.0 °F 66.9 °F 96% 30.04 in 10.0 mi SSE 6.9 mph - N/A   Mostly Cloudy
10:26 AM 68.0 °F 66.0 °F 93% 30.05 in 10.0 mi North - - N/A   Overcast
10:53 AM 71.1 °F 66.9 °F 87% 30.04 in 10.0 mi North - - N/A   Overcast
11:11 AM 71.1 °F 66.9 °F 87% 30.03 in 10.0 mi North - - N/A   Scattered Clouds
11:53 AM 72.0 °F 68.0 °F 87% 30.02 in 10.0 mi North - - N/A   Clear
12:53 PM 75.0 °F 68.0 °F 79% 29.99 in 10.0 mi NE 3.5 mph - N/A   Clear
1:53 PM 75.0 °F 66.9 °F 76% 29.98 in 10.0 mi SSE 4.6 mph - N/A   Clear
2:53 PM 75.9 °F 66.0 °F 71% 29.97 in 10.0 mi WNW 5.8 mph - N/A   Clear
3:53 PM 77.0 °F 64.9 °F 66% 29.97 in 10.0 mi North - - N/A   Partly Cloudy
4:53 PM 75.9 °F 64.9 °F 69% 29.97 in 10.0 mi North - - N/A   Clear
5:53 PM 73.9 °F 66.0 °F 76% 29.98 in 10.0 mi NW 3.5 mph - N/A   Clear
6:53 PM 73.0 °F 66.0 °F 79% 30.00 in 10.0 mi NNW 4.6 mph - N/A   Mostly Cloudy
7:53 PM 72.0 °F 66.9 °F 84% 30.02 in 10.0 mi North 5.8 mph - N/A   Scattered Clouds
8:53 PM 71.1 °F 66.0 °F 84% 30.03 in 10.0 mi North 4.6 mph - N/A   Clear
9:53 PM 70.0 °F 66.9 °F 90% 30.05 in 10.0 mi ENE 5.8 mph - N/A   Mostly Cloudy
10:53 PM 70.0 °F 68.0 °F 93% 30.05 in 10.0 mi East 9.2 mph - N/A   Mostly Cloudy
11:53 PM 70.0 °F 68.0 °F 93% 30.03 in 10.0 mi ENE 3.5 mph - N/A   Mostly Cloudy